| time (UTC) | temp C | wind direction | speed KPH | gust KPH | rain 1hr cm | rain 24hr cm | rain mn cm | humidity % | barometer mb |
| 20260505100614 | 32 | 32 | 3.2 | 3.2 | 0.00 | 0.00 | 0.53 | 67 | 1005.0 |
| 20260505100114 | 33 | 30 | 6.4 | 11.3 | 0.00 | 0.00 | 0.53 | 67 | 1005.0 |
| 20260505095616 | 33 | 32 | 4.8 | 4.8 | 0.00 | 0.00 | 0.53 | 67 | 1005.0 |
| 20260505095115 | 33 | 338 | 6.4 | 9.7 | 0.00 | 0.00 | 0.53 | 66 | 1005.0 |
| 20260505094614 | 33 | 20 | 4.8 | 8.0 | 0.00 | 0.00 | 0.53 | 65 | 1005.0 |
| 20260505094114 | 33 | 55 | 3.2 | 3.2 | 0.00 | 0.00 | 0.53 | 66 | 1005.0 |
| 20260505093614 | 33 | 0 | 4.8 | 9.7 | 0.00 | 0.00 | 0.53 | 64 | 1005.0 |
| 20260505093115 | 33 | 42 | 4.8 | 8.0 | 0.00 | 0.00 | 0.53 | 65 | 1005.0 |
| 20260505092614 | 34 | 103 | 6.4 | 8.0 | 0.00 | 0.00 | 0.53 | 64 | 1005.0 |
| 20260505092114 | 35 | 32 | 4.8 | 4.8 | 0.00 | 0.00 | 0.53 | 59 | 1005.0 |
| 20260505091614 | 35 | 41 | 3.2 | 4.8 | 0.00 | 0.00 | 0.53 | 58 | 1005.0 |
| 20260505091115 | 35 | 55 | 3.2 | 3.2 | 0.00 | 0.00 | 0.53 | 58 | 1005.0 |
| 20260505090614 | 35 | 74 | 1.6 | 1.6 | 0.00 | 0.00 | 0.53 | 58 | 1005.0 |
| 20260505090115 | 35 | 50 | 3.2 | 8.0 | 0.00 | 0.00 | 0.53 | 60 | 1005.0 |
| 20260505085614 | 35 | 55 | 3.2 | 3.2 | 0.00 | 0.00 | 0.53 | 60 | 1005.0 |
| 20260505085114 | 35 | 48 | 1.6 | 3.2 | 0.00 | 0.00 | 0.53 | 59 | 1006.0 |
| 20260505084614 | 35 | 30 | 6.4 | 9.7 | 0.00 | 0.00 | 0.53 | 56 | 1006.0 |
| 20260505084114 | 35 | 32 | 1.6 | 3.2 | 0.00 | 0.00 | 0.53 | 48 | 1006.0 |
| 20260505083614 | 35 | 57 | 3.2 | 3.2 | 0.00 | 0.00 | 0.53 | 52 | 1006.0 |
| 20260505083114 | 36 | 40 | 3.2 | 3.2 | 0.00 | 0.00 | 0.53 | 51 | 1005.0 |
| 20260505082614 | 37 | 53 | 1.6 | 1.6 | 0.00 | 0.00 | 0.53 | 44 | 1006.0 |
| 20260505082114 | 36 | 65 | 0.0 | 1.6 | 0.00 | 0.00 | 0.53 | 47 | 1006.0 |
| 20260505081614 | 35 | 29 | 1.6 | 4.8 | 0.00 | 0.00 | 0.53 | 51 | 1006.0 |
| 20260505081114 | 35 | 43 | 8.0 | 9.7 | 0.00 | 0.00 | 0.53 | 50 | 1006.0 |
| 20260505080615 | 35 | 46 | 4.8 | 4.8 | 0.00 | 0.00 | 0.53 | 49 | 1006.0 |
| 20260505080115 | 35 | 58 | 1.6 | 1.6 | 0.00 | 0.00 | 0.53 | 54 | 1006.0 |
| 20260505075615 | 35 | 59 | 4.8 | 8.0 | 0.00 | 0.00 | 0.53 | 56 | 1006.0 |
| 20260505075118 | 34 | 40 | 4.8 | 4.8 | 0.00 | 0.00 | 0.53 | 59 | 1006.0 |
| 20260505074615 | 34 | 36 | 3.2 | 3.2 | 0.00 | 0.00 | 0.53 | 58 | 1006.0 |
| 20260505073647 | 35 | 60 | 3.2 | 4.8 | 0.00 | 0.00 | 0.53 | 57 | 1006.0 |
| 20260505073114 | 35 | 44 | 1.6 | 1.6 | 0.00 | 0.00 | 0.53 | 57 | 1006.0 |
| 20260505072615 | 34 | 46 | 3.2 | 3.2 | 0.00 | 0.00 | 0.53 | 58 | 1006.0 |
| 20260505072114 | 34 | 36 | 8.0 | 9.7 | 0.00 | 0.00 | 0.53 | 57 | 1007.0 |
| 20260505071614 | 34 | 31 | 4.8 | 4.8 | 0.00 | 0.00 | 0.53 | 60 | 1007.0 |
| 20260505071115 | 34 | 23 | 8.0 | 9.7 | 0.00 | 0.00 | 0.53 | 57 | 1007.0 |
| 20260505070615 | 34 | 27 | 3.2 | 8.0 | 0.00 | 0.00 | 0.53 | 57 | 1007.0 |
| 20260505070115 | 34 | 55 | 4.8 | 4.8 | 0.00 | 0.00 | 0.53 | 57 | 1007.0 |
| 20260505065614 | 34 | 64 | 4.8 | 8.0 | 0.00 | 0.00 | 0.53 | 54 | 1007.0 |
| 20260505065114 | 33 | 65 | 1.6 | 3.2 | 0.00 | 0.00 | 0.53 | 56 | 1007.0 |
| 20260505064615 | 34 | 63 | 3.2 | 3.2 | 0.00 | 0.00 | 0.53 | 57 | 1007.0 |
| 20260505064114 | 33 | 69 | 1.6 | 3.2 | 0.00 | 0.00 | 0.53 | 55 | 1007.0 |
| 20260505063615 | 33 | 53 | 4.8 | 4.8 | 0.00 | 0.00 | 0.53 | 58 | 1008.0 |
| 20260505063115 | 33 | 60 | 6.4 | 8.0 | 0.00 | 0.00 | 0.53 | 56 | 1008.0 |
| 20260505062615 | 33 | 29 | 4.8 | 4.8 | 0.00 | 0.00 | 0.53 | 57 | 1008.0 |
| 20260505062115 | 33 | 9 | 9.7 | 11.3 | 0.00 | 0.00 | 0.53 | 57 | 1008.0 |
| 20260505061614 | 32 | 42 | 3.2 | 4.8 | 0.00 | 0.00 | 0.53 | 59 | 1008.0 |
| 20260505061114 | 32 | 48 | 4.8 | 4.8 | 0.00 | 0.00 | 0.53 | 59 | 1008.0 |
| 20260505060615 | 32 | 31 | 3.2 | 3.2 | 0.00 | 0.00 | 0.53 | 59 | 1008.0 |
| 20260505060114 | 32 | 359 | 6.4 | 9.7 | 0.00 | 0.00 | 0.53 | 58 | 1008.0 |
| 20260505055614 | 33 | 40 | 6.4 | 9.7 | 0.00 | 0.00 | 0.53 | 58 | 1008.0 |
| 20260505055116 | 32 | 58 | 3.2 | 3.2 | 0.00 | 0.00 | 0.53 | 60 | 1008.0 |
| 20260505054617 | 32 | 33 | 4.8 | 8.0 | 0.00 | 0.00 | 0.53 | 61 | 1008.0 |
| 20260505054114 | 32 | 66 | 4.8 | 4.8 | 0.00 | 0.00 | 0.53 | 60 | 1008.0 |
| 20260505053615 | 32 | 63 | 0.0 | 0.0 | 0.00 | 0.00 | 0.53 | 58 | 1008.0 |
| 20260505053114 | 32 | 61 | 1.6 | 3.2 | 0.00 | 0.00 | 0.53 | 58 | 1008.0 |
| 20260505052615 | 32 | 32 | 6.4 | 8.0 | 0.00 | 0.00 | 0.53 | 56 | 1008.0 |
| 20260505052115 | 32 | 37 | 6.4 | 8.0 | 0.00 | 0.00 | 0.53 | 58 | 1008.0 |
| 20260505051614 | 32 | 63 | 1.6 | 3.2 | 0.00 | 0.00 | 0.53 | 58 | 1008.0 |
| 20260505051114 | 32 | 68 | 1.6 | 1.6 | 0.00 | 0.00 | 0.53 | 59 | 1008.0 |
| 20260505050614 | 33 | 78 | 0.0 | 0.0 | 0.00 | 0.00 | 0.53 | 55 | 1009.0 |
| 20260505050115 | 33 | 28 | 4.8 | 4.8 | 0.00 | 0.00 | 0.53 | 56 | 1008.0 |
| 20260505041614 | 29 | 64 | 3.2 | 3.2 | 0.00 | 0.00 | 0.53 | 70 | 1009.0 |
| 20260505041115 | 28 | 72 | 4.8 | 4.8 | 0.00 | 0.00 | 0.53 | 72 | 1009.0 |
| 20260505040617 | 28 | 77 | 4.8 | 4.8 | 0.00 | 0.00 | 0.53 | 71 | 1009.0 |
| 20260505040115 | 28 | 68 | 3.2 | 4.8 | 0.00 | 0.00 | 0.53 | 71 | 1009.0 |
| 20260505035615 | 28 | 70 | 3.2 | 4.8 | 0.00 | 0.00 | 0.53 | 72 | 1009.0 |
| 20260505035114 | 28 | 71 | 1.6 | 1.6 | 0.00 | 0.00 | 0.53 | 72 | 1009.0 |
| 20260505034616 | 28 | 67 | 3.2 | 3.2 | 0.00 | 0.00 | 0.53 | 73 | 1009.0 |
| 20260505034115 | 28 | 70 | 1.6 | 1.6 | 0.00 | 0.00 | 0.53 | 74 | 1009.0 |
| 20260505033614 | 28 | 80 | 1.6 | 1.6 | 0.00 | 0.00 | 0.53 | 72 | 1009.0 |
| 20260505033114 | 28 | 66 | 1.6 | 1.6 | 0.00 | 0.00 | 0.53 | 73 | 1009.0 |
| 20260505031115 | 27 | 58 | 1.6 | 1.6 | 0.00 | 0.00 | 0.53 | 80 | 1009.0 |
| 20260505030615 | 27 | 57 | 0.0 | 1.6 | 0.00 | 0.00 | 0.53 | 81 | 1008.0 |
| 20260505030114 | 26 | 48 | 1.6 | 3.2 | 0.00 | 0.00 | 0.53 | 81 | 1008.0 |
| 20260505025614 | 26 | 49 | 1.6 | 3.2 | 0.00 | 0.00 | 0.53 | 83 | 1008.0 |
| 20260505025114 | 26 | 56 | 1.6 | 1.6 | 0.00 | 0.00 | 0.53 | 84 | 1008.0 |
| 20260505024614 | 26 | 58 | 0.0 | 0.0 | 0.00 | 0.00 | 0.53 | 85 | 1008.0 |
| 20260505024114 | 26 | 68 | 3.2 | 3.2 | 0.00 | 0.00 | 0.53 | 85 | 1008.0 |
| 20260505023614 | 26 | 57 | 1.6 | 1.6 | 0.00 | 0.00 | 0.53 | 85 | 1008.0 |
| 20260505023115 | 25 | 53 | 4.8 | 4.8 | 0.00 | 0.00 | 0.53 | 85 | 1008.0 |
| 20260505022615 | 25 | 62 | 1.6 | 3.2 | 0.00 | 0.00 | 0.53 | 86 | 1008.0 |
| 20260505022114 | 25 | 48 | 3.2 | 4.8 | 0.00 | 0.00 | 0.53 | 87 | 1008.0 |
| 20260505021614 | 25 | 55 | 3.2 | 3.2 | 0.00 | 0.00 | 0.53 | 87 | 1007.0 |
| 20260505021115 | 25 | 31 | 4.8 | 4.8 | 0.00 | 0.00 | 0.53 | 88 | 1007.0 |
| 20260505020614 | 25 | 49 | 3.2 | 3.2 | 0.00 | 0.00 | 0.53 | 88 | 1008.0 |
| 20260505020114 | 25 | 59 | 1.6 | 3.2 | 0.00 | 0.00 | 0.53 | 89 | 1008.0 |
| 20260505015614 | 25 | 51 | 3.2 | 3.2 | 0.00 | 0.00 | 0.53 | 89 | 1008.0 |
| 20260505015115 | 25 | 57 | 1.6 | 3.2 | 0.00 | 0.00 | 0.53 | 89 | 1007.0 |
| 20260505014615 | 25 | 49 | 1.6 | 3.2 | 0.00 | 0.00 | 0.53 | 90 | 1007.0 |
| 20260505014114 | 24 | 41 | 3.2 | 3.2 | 0.00 | 0.00 | 0.53 | 90 | 1007.0 |
| 20260505013614 | 24 | 53 | 3.2 | 3.2 | 0.00 | 0.00 | 0.53 | 90 | 1007.0 |
| 20260505013115 | 24 | 54 | 1.6 | 3.2 | 0.00 | 0.00 | 0.53 | 90 | 1007.0 |
| 20260505012614 | 24 | 55 | 1.6 | 1.6 | 0.00 | 0.00 | 0.53 | 90 | 1007.0 |
| 20260505012115 | 24 | 51 | 3.2 | 3.2 | 0.00 | 0.00 | 0.53 | 90 | 1007.0 |
| 20260505011614 | 24 | 43 | 1.6 | 3.2 | 0.00 | 0.00 | 0.53 | 91 | 1007.0 |
| 20260505011114 | 24 | 49 | 1.6 | 1.6 | 0.00 | 0.00 | 0.53 | 91 | 1007.0 |
| 20260505010614 | 24 | 57 | 1.6 | 3.2 | 0.00 | 0.00 | 0.53 | 91 | 1007.0 |
| 20260505010120 | 24 | 39 | 1.6 | 3.2 | 0.00 | 0.00 | 0.53 | 91 | 1007.0 |
| 20260505005614 | 24 | 47 | 3.2 | 3.2 | 0.00 | 0.00 | 0.53 | 91 | 1007.0 |
| 20260505005114 | 24 | 51 | 1.6 | 1.6 | 0.00 | 0.00 | 0.53 | 91 | 1007.0 |
| 20260505004614 | 24 | 40 | 3.2 | 3.2 | 0.00 | 0.00 | 0.53 | 91 | 1007.0 |
| 20260505004114 | 24 | 49 | 1.6 | 3.2 | 0.00 | 0.00 | 0.53 | 91 | 1007.0 |
| 20260504215115 | 24 | 66 | 1.6 | 1.6 | 0.00 | 0.00 | 0.53 | 91 | 1006.0 |
| 20260504214614 | 24 | 69 | 3.2 | 3.2 | 0.00 | 0.00 | 0.53 | 91 | 1006.0 |
| 20260504214114 | 23 | 60 | 3.2 | 3.2 | 0.00 | 0.00 | 0.53 | 91 | 1006.0 |
| 20260504213614 | 23 | 62 | 1.6 | 1.6 | 0.00 | 0.00 | 0.53 | 91 | 1006.0 |
| 20260504213114 | 23 | 73 | 3.2 | 4.8 | 0.00 | 0.00 | 0.53 | 91 | 1006.0 |
| 20260504212615 | 23 | 58 | 1.6 | 1.6 | 0.00 | 0.00 | 0.53 | 91 | 1006.0 |
| 20260504212114 | 23 | 59 | 3.2 | 3.2 | 0.00 | 0.00 | 0.53 | 91 | 1006.0 |
| 20260504211616 | 23 | 58 | 1.6 | 1.6 | 0.18 | 0.00 | 0.53 | 91 | 1006.0 |
| 20260504211114 | 23 | 51 | 3.2 | 4.8 | 0.18 | 0.00 | 0.53 | 91 | 1006.0 |
| 20260504210614 | 23 | 56 | 1.6 | 1.6 | 0.18 | 0.00 | 0.53 | 90 | 1006.0 |
| 20260504210114 | 23 | 53 | 1.6 | 1.6 | 0.00 | 0.00 | 0.51 | 90 | 1006.0 |
| 20260504205615 | 23 | 59 | 1.6 | 1.6 | 0.13 | 0.00 | 0.51 | 90 | 1006.0 |
| 20260504205114 | 23 | 59 | 1.6 | 1.6 | 0.13 | 0.00 | 0.51 | 90 | 1006.0 |
| 20260504204614 | 23 | 70 | 1.6 | 1.6 | 0.18 | 0.00 | 0.48 | 90 | 1006.0 |
| 20260504204115 | 23 | 43 | 6.4 | 8.0 | 0.30 | 0.00 | 0.48 | 90 | 1007.0 |
| 20260504203615 | 23 | 65 | 1.6 | 1.6 | 0.13 | 0.00 | 0.46 | 90 | 1007.0 |
| 20260504203114 | 23 | 61 | 1.6 | 1.6 | 0.18 | 0.00 | 0.43 | 90 | 1007.0 |
| 20260504202615 | 23 | 54 | 6.4 | 9.7 | 0.30 | 0.00 | 0.43 | 90 | 1007.0 |
| 20260504202114 | 23 | 48 | 4.8 | 4.8 | 0.30 | 0.00 | 0.41 | 90 | 1007.0 |
| 20260504201614 | 23 | 52 | 1.6 | 3.2 | 0.48 | 0.00 | 0.38 | 90 | 1007.0 |
| 20260504201114 | 23 | 27 | 4.8 | 9.7 | 0.48 | 0.00 | 0.36 | 90 | 1007.0 |
| 20260504200615 | 23 | 65 | 3.2 | 3.2 | 0.30 | 0.00 | 0.30 | 90 | 1007.0 |
| 20260504200115 | 23 | 60 | 3.2 | 3.2 | 0.30 | 0.00 | 0.28 | 90 | 1007.0 |
| 20260504195615 | 23 | 62 | 1.6 | 3.2 | 0.48 | 0.00 | 0.25 | 90 | 1007.0 |
| 20260504195114 | 23 | 52 | 4.8 | 4.8 | 0.43 | 0.00 | 0.23 | 90 | 1007.0 |
| 20260504160115 | 29 | 100 | 3.2 | 3.2 | 0.00 | 0.00 | 0.00 | 76 | 1008.0 |
| 20260504151115 | 29 | 57 | 1.6 | 1.6 | 0.00 | 0.00 | 0.00 | 73 | 1006.0 |
| 20260504150614 | 29 | 54 | 1.6 | 1.6 | 0.00 | 0.00 | 0.00 | 73 | 1006.0 |
| 20260504150117 | 29 | 40 | 4.8 | 4.8 | 0.00 | 0.00 | 0.00 | 73 | 1006.0 |
| 20260504141115 | 30 | 63 | 3.2 | 4.8 | 0.00 | 0.00 | 0.00 | 73 | 1005.0 |
| 20260504140615 | 30 | 10 | 6.4 | 11.3 | 0.00 | 0.00 | 0.00 | 73 | 1005.0 |
| 20260504140115 | 30 | 20 | 1.6 | 4.8 | 0.00 | 0.00 | 0.00 | 73 | 1005.0 |
| 20260504130615 | 31 | 51 | 1.6 | 3.2 | 0.00 | 0.00 | 0.00 | 72 | 1004.0 |
| 20260504130116 | 31 | 54 | 1.6 | 1.6 | 0.00 | 0.00 | 0.00 | 71 | 1004.0 |
| 20260504120114 | 33 | 62 | 3.2 | 3.2 | 0.00 | 0.00 | 0.00 | 69 | 1003.0 |
| 20260504110615 | 35 | 60 | 0.0 | 0.0 | 0.00 | 0.00 | 0.00 | 57 | 1003.0 |
| 20260504110114 | 35 | 46 | 3.2 | 3.2 | 0.00 | 0.00 | 0.00 | 55 | 1003.0 |